This is the latest recevied weather packets stored in our database for station/object HB9TJM-8. If no packets are shown the sender has not sent any weather packets the latest 10 day(s).
| Time | Temp. | Humidity | Pressure | Rain* | Wind** | Luminosity | Snow |
|---|---|---|---|---|---|---|---|
| 1777550482 | 13.33° C | 58% | 1020.8 hPa | 0 mm | - | 841 W/m² | - |
| 1777550175 | 13.33° C | 58% | 1020.8 hPa | 0 mm | - | 844 W/m² | - |
| 1777550174 | 13.33° C | 58% | 1020.8 hPa | 0 mm | - | 844 W/m² | - |
| 1777549867 | 13.33° C | 60% | 1020.7 hPa | 0 mm | - | 847 W/m² | - |
| 1777549559 | 13.33° C | 59% | 1020.3 hPa | 0 mm | - | 848 W/m² | - |
| 1777549559 | 13.33° C | 59% | 1020.3 hPa | 0 mm | - | 848 W/m² | - |
| 1777549252 | 12.78° C | 60% | 1020.9 hPa | 0 mm | - | 849 W/m² | - |
| 1777548944 | 12.78° C | 57% | 1021 hPa | 0 mm | - | 849 W/m² | - |
| 1777548637 | 13.33° C | 57% | 1021 hPa | 0 mm | - | 848 W/m² | - |
| 1777548330 | 12.22° C | 58% | 1021.1 hPa | 0 mm | - | 846 W/m² | - |
| 1777548330 | 12.22° C | 58% | 1021.1 hPa | 0 mm | - | 846 W/m² | - |
| 1777548023 | 12.78° C | 57% | 1021 hPa | 0 mm | - | 843 W/m² | - |
| 1777548022 | 12.78° C | 57% | 1021 hPa | 0 mm | - | 843 W/m² | - |
| 1777547715 | 12.78° C | 60% | 1021.1 hPa | 0 mm | - | 841 W/m² | - |
| 1777547407 | 12.78° C | 57% | 1021.3 hPa | 0 mm | - | 838 W/m² | - |
| 1777547100 | 12.22° C | 57% | 1021.1 hPa | 0 mm | - | 834 W/m² | - |
| 1777546793 | 11.67° C | 60% | 1021.2 hPa | 0 mm | - | 830 W/m² | - |
| 1777546485 | 12.22° C | 59% | 1021 hPa | 0 mm | - | 824 W/m² | - |
| 1777546178 | 11.67° C | 58% | 1020.9 hPa | 0 mm | - | 818 W/m² | - |
| 1777545871 | 11.67° C | 60% | 1021 hPa | 0 mm | - | 811 W/m² | - |
| 1777545564 | 12.22° C | 57% | 1020.8 hPa | 0 mm | - | 804 W/m² | - |
| 1777545256 | 11.67° C | 58% | 1020.5 hPa | 0 mm | - | 799 W/m² | - |
| 1777544948 | 11.67° C | 57% | 1020.7 hPa | 0 mm | - | 792 W/m² | - |
| 1777544641 | 11.67° C | 61% | 1020.9 hPa | 0 mm | - | 782 W/m² | - |
| 1777544334 | 11.11° C | 60% | 1021 hPa | 0 mm | - | 777 W/m² | - |
* Rain latest hour (hover to see other rain measurements)
** Current wind speed in m/s (hover to see current wind gust speed)